Bedford, MA

3:25 PM EDT on July 28, 2017 (GMT -0400)
Hanscom

Weather History for KBED - August, 2013

Change the Weather History Date:

Friday, August 2, 2013

  Actual Average Record
Temperature  
Mean Temperature 72 °F -  
Max Temperature 82 °F 84 °F 101 °F (1975)
Min Temperature 62 °F 62 °F 45 °F (1964)
Cooling Degree Days 7    
Growing Degree Days 22 (Base 50)    
Moisture  
Dew Point 62 °F    
Average Humidity 81    
Maximum Humidity 100    
Minimum Humidity 41    
Precipitation  
Precipitation 0.70 in - - ()
Sea Level Pressure  
Sea Level Pressure 29.84 in    
Wind  
Wind Speed 3 mph (WSW)    
Max Wind Speed 12 mph    
Max Gust Speed 22 mph    
Visibility 8 miles    
Events Rain    
Averages and records for this station are not official NWS values.
T = Trace of Precipitation, MM = Missing Value Source: NWS Daily Summary

Daily Weather History Graph

Daily Weather History Graph

Search for Another Location

Airport or City:

Trip Planner

Search our weather history database for the weather conditions in past years. The results will help you decide how hot, cold, wet, or windy it might be!

Date:

Astronomy

Aug. 02, 2013 Rise Set
Actual Time 5:38 AM EDT 8:03 PM EDT
Civil Twilight 5:06 AM EDT 8:35 PM EDT
Nautical Twilight 4:27 AM EDT 9:14 PM EDT
Astronomical Twilight 3:43 AM EDT 9:58 PM EDT
Moon 1:56 AM EDT (8/2) 4:59 PM EDT (8/2)
Length of Visible Light 15h 28m
Length of Day
14h 24m
Waning Crescent, 16% of the Moon is Illuminated
Aug 2
Waning Crescent
Aug 6
New
Aug 14
First Quarter
Aug 20
Full
Aug 28
Last Quarter

Hourly Weather History & Observations

Time (EDT) Temp. Heat Index Dew Point Humidity Pressure Visibility Wind Dir Wind Speed Gust Speed Precip Events Conditions
12:56 AM 66.0 °F - 61.0 °F 84% 29.89 in 10.0 mi South 5.8 mph - N/A   Overcast
1:56 AM 64.9 °F - 62.1 °F 90% 29.87 in 10.0 mi South 3.5 mph - 0.00 in   Overcast
2:56 AM 64.9 °F - 62.1 °F 90% 29.84 in 10.0 mi Calm Calm - N/A   Overcast
3:25 AM 64.4 °F - 62.6 °F 94% 29.80 in 10.0 mi Calm Calm - N/A   Overcast
3:56 AM 64.9 °F - 62.1 °F 90% 29.84 in 10.0 mi Calm Calm - N/A   Overcast
4:14 AM 64.4 °F - 62.6 °F 94% 29.81 in 2.5 mi South 3.5 mph - 0.08 in Rain Rain
4:48 AM 62.6 °F - 62.6 °F 100% 29.81 in 3.0 mi Calm Calm - 0.25 in Rain Rain
4:56 AM 63.0 °F - 63.0 °F 100% 29.85 in 2.5 mi SSE 4.6 mph - 0.30 in Rain Heavy Rain
5:11 AM 62.6 °F - 62.6 °F 100% 29.80 in 5.0 mi SE 3.5 mph - 0.04 in Rain Rain
5:56 AM 64.0 °F - 63.0 °F 96% 29.85 in 4.0 mi Calm Calm - 0.11 in Rain Light Rain
6:13 AM 62.6 °F - 62.6 °F 100% 29.81 in 1.8 mi Calm Calm - 0.04 in Rain Rain
6:26 AM 62.6 °F - 62.6 °F 100% 29.81 in 0.8 mi Calm Calm - 0.22 in Rain Heavy Rain
6:32 AM 62.6 °F - 62.6 °F 100% 29.81 in 2.0 mi Calm Calm - 0.24 in Rain Rain
6:36 AM 62.6 °F - 62.6 °F 100% 29.81 in 3.0 mi Calm Calm - 0.25 in Rain Rain
6:44 AM 62.6 °F - 62.6 °F 100% 29.82 in 5.0 mi Calm Calm - 0.25 in Rain Light Rain
6:56 AM 63.0 °F - - N/A% 29.86 in 7.0 mi Calm Calm - 0.26 in Rain Light Rain
7:15 AM 62.6 °F - - N/A% 29.82 in 2.0 mi Calm Calm - 0.01 in Rain Light Rain
7:37 AM 64.4 °F - - N/A% 29.82 in 3.0 mi Calm Calm - 0.03 in Rain Light Rain
7:56 AM 64.9 °F - - N/A% 29.85 in 10.0 mi Calm Calm - 0.03 in   Overcast
8:03 AM 64.4 °F - - N/A% 29.82 in 10.0 mi Calm Calm - N/A   Overcast
8:09 AM 64.4 °F - - N/A% 29.82 in 10.0 mi Calm Calm - N/A   Overcast
8:25 AM 66.2 °F - 66.2 °F 100% 29.82 in 3.0 mi Calm Calm - N/A   Mostly Cloudy
8:38 AM 66.2 °F - 66.2 °F 100% 29.82 in 8.0 mi SW 3.5 mph - N/A   Overcast
8:56 AM 66.0 °F - 66.0 °F 100% 29.86 in 6.0 mi Variable 3.5 mph - N/A   Overcast
9:56 AM 70.0 °F - 70.0 °F 100% 29.85 in 10.0 mi West 5.8 mph - N/A   Mostly Cloudy
10:49 AM 73.4 °F - 66.2 °F 78% 29.81 in 10.0 mi NNW 5.8 mph - N/A   Mostly Cloudy
10:56 AM 73.9 °F - 66.0 °F 76% 29.85 in 10.0 mi NNW 5.8 mph - N/A   Mostly Cloudy
11:03 AM 75.2 °F - 64.4 °F 69% 29.82 in 10.0 mi WNW 8.1 mph - N/A   Partly Cloudy
11:51 AM 75.2 °F - 66.2 °F 73% 29.82 in 10.0 mi West 6.9 mph - N/A   Mostly Cloudy
11:56 AM 77.0 °F - 64.9 °F 66% 29.85 in 10.0 mi West 5.8 mph - N/A   Mostly Cloudy
12:56 PM 78.1 °F - 63.0 °F 60% 29.83 in 10.0 mi West 8.1 mph - N/A   Mostly Cloudy
1:56 PM 80.1 °F 81.1 °F 61.0 °F 52% 29.83 in 10.0 mi Variable 6.9 mph - N/A   Mostly Cloudy
2:56 PM 81.0 °F 81.3 °F 59.0 °F 47% 29.82 in 10.0 mi WSW 10.4 mph 21.9 mph N/A   Mostly Cloudy
3:56 PM 82.0 °F 81.7 °F 57.0 °F 42% 29.82 in 10.0 mi West 11.5 mph 20.7 mph N/A   Clear
4:56 PM 82.0 °F 81.6 °F 55.9 °F 41% 29.82 in 10.0 mi WSW 9.2 mph - N/A   Scattered Clouds
5:56 PM 80.1 °F 80.4 °F 57.0 °F 45% 29.83 in 10.0 mi WSW 9.2 mph 16.1 mph N/A   Scattered Clouds
6:56 PM 78.1 °F - 57.9 °F 50% 29.83 in 10.0 mi WSW 6.9 mph - N/A   Clear
7:56 PM 71.1 °F - 61.0 °F 70% 29.86 in 10.0 mi SW 5.8 mph - N/A   Clear
8:56 PM 70.0 °F - 60.1 °F 71% 29.87 in 10.0 mi Calm Calm - N/A   Clear
9:56 PM 69.1 °F - 61.0 °F 75% 29.88 in 10.0 mi Calm Calm - N/A   Scattered Clouds
10:56 PM 66.9 °F - 61.0 °F 81% 29.90 in 10.0 mi WNW 8.1 mph 18.4 mph 0.00 in Rain Light Rain
11:56 PM 66.0 °F - 60.1 °F 81% 29.89 in 10.0 mi SSW 4.6 mph - 0.00 in   Scattered Clouds